sat.trackr.live / text

‹ back to catalog

STARLINK-36224

NORAD 67203 · 2025-304M

PAYLOAD ACTIVE UNKNOWN

§ Identity

Operator
Country
US
Launch date
2025-12-17
Launch site
AFWTR
Launch vehicle
Mass (kg)
RCS (m²)

Purposes: comms

External: N2YO · Heavens-Above · Gunter

§ Orbital elements

Epoch: 2026-05-24T23:51:37.192608Z

Period
96.11 min
Inclination
70.0014°
Eccentricity
0.0002515
Mean motion
14.98339360 rev/d
Perigee alt
570.3 km
Apogee alt
573.8 km
Semi-major
6,950.2 km
B*
3.1094e-4
RAAN
342.0896°
Arg perigee
265.0201°
Mean anomaly
95.0671°
Rev number
2,531

§ Raw data

STARLINK-362241 67203U 25304M   26144.99418047  .00003620  00000+0  31094-3 0  99912 67203  70.0014 342.0896 0002515 265.0201  95.0671 14.98339360 25318

JSON: /api/v1/satellites/67203 · /tle

For live sub-satellite position, see the globe view (requires WebGL).

§ Visibility from observer

Set your observer location to see the next 7 days of passes ≥ 10°. The values pass through the URL so the page stays shareable.

No JS? Fill the form by hand. The geolocation button needs JavaScript.